FENGYUN 1C DEB, 32096

Orbit data source: Space-Track

FENGYUN 1C DEB, 32096 is space debris in SSO originally from a launch on Mon, 10 May 1999 UTC launched from the Taiyaun Space Center, China (TSC). Fengyun 1C debris stems from the Chinese weather satellite Fengyun-1C, which was intentionally destroyed by a Chinese anti-satellite missile in 2007. This event dramatically increased the amount of space debris, with thousands of trackable fragments posing hazards to satellites and human spaceflight. The Fengyun 1C debris cloud has become a focal point in discussions about space sustainability and the need for international regulations to prevent the creation of new debris.

Loading next visibility...
Identifier
32096, 1999-025CQN
Orbit
SSO
Country
Flag of CNCN / PRC
Related business
Manufacturer
Unknown
Mission
Spacecraft
Bus & Motor
Unknown
Mass
Unknown
Launch date (UTC)
1999-05-10 (26 years ago)
Launch vehicle
Unknown
Launch site
Taiyaun Space Center, China (TSC)
Object type
Payload
Rocket body
Debris
Shape & HBR
Unknown shape, 0.1 m
Radar Cross Section
Small (<0.1 m²)

Expand to show TLE details & history
Last TLE update: 6 days ago

TLE from 6 days ago
0 FENGYUN 1C DEB
1 32096U 99025CQN 25297.33206955  .00001831  00000-0  14176-2 0  9997
2 32096  99.0817 327.5046 0132728 273.2319  85.3662 13.89957737921756
Epoch: 2025-10-24T07:58Z
TLE epoch observation values (Epoch: 2025-10-24T07:58:10.809Z)
Latitude
-0.00002°
Longitude
174.98107°
Altitude
925.085 km
Speed
7.393 km/s
True Right ascension
21h 50m 01s
True Declination
0° 00' 00"
Sunlit
Object was in daylight at epoch
Visualization orbit readout
Latitude
Unknown
Longitude
Unknown
Altitude
Unknown
Speed
Unknown
Apparent Right ascension
Unknown
Apparent Declination
Unknown
Sunlit
N/A
Visualization observer readout
Local Sidereal Time
02:00:18
Azimuth
Unknown
Elevation
Unknown
Doppler factor
Unknown
Orbital elements
Apogee altitude
1,022.941 km
Perigee altitude
829.049 km
Semi-major axis
7,304.132 km
Eccentricity
0.01327
Inclination
99.0817°
RAAN
327.5046°
Arg. of periapsis
273.2319°
True anomaly
86.88404°
Mean anomaly
85.3662°
Eccentric anomaly
86.12494°
Mean motion
3.47688 °/min
Orbital period
103.54 mins
BSTAR
0.0014176
Loading maneuver chart data...
Computing Atmospheric mass density...

Documentation

Showing up to 5 results
|